Weather Roundup
Issued by NWS

Home | Current Version | Previous Version | Text Only | Print | Product List | Glossary On
Versions: 1 2 3 4 5 6 7 8 9 10 11 12 13 14 15 16 17 18 19 20 21 22 23 24 25 26 27 28 29 30 31 32 33 34 35 36 37 38 39 40 41 42 43 44 45 46 47 48 49 50
559
NZUS93 KARX 090959
HRRWXR

CURRENT HOURLY OBSERVATIONS ACROSS
MUCH OF THE UPPER MISSISSIPPI VALLEY
NATIONAL WEATHER SERVICE LA CROSSE WI
400 AM CST FRI DEC 09 2016


...SOUTHEAST MINNESOTA...


CITY           SKY/WX    TMP DP  RH WIND       PRES   REMARKS
ROCHESTER      CLOUDY    11   9  92 NW9       30.50S WCI  -2
ROCHESTER/MAYO PTSUNNY   14  11  90 W10       30.51S WCI   1
WINONA         CLOUDY    21  16  79 W7        30.53S WCI  13
AUSTIN         LGT SNOW  12   9  85 NW10      30.52S WCI  -1
ALBERT LEA     FLURRIES  16  12  86 W5        30.53S WCI   9
DODGE CENTER   FLURRIES  10   9  92 W9        30.50S WCI  -2
PRESTON        FLURRIES  10   7  87 NW8       30.50S WCI  -2
OWATONNA       FLURRIES  10   7  85 W10       30.54R WCI  -3
FARIBAULT      CLOUDY    10   9  92 W8        30.55R WCI  -1
$$

...ELSEWHERE IN MINNESOTA...


CITY           SKY/WX    TMP DP  RH WIND       PRES   REMARKS
MINNEAPOLIS    CLOUDY    15   9  76 NW7       30.54S WCI   5
INTNL FALLS    CLOUDY     9   4  80 W9        30.46S WCI  -4
DULUTH         FLURRIES  12   6  77 NW8       30.43R WCI   0
RED WING       CLEAR     16  10  79 W3        30.52S
REDWOOD FALLS  CLEAR      3  -2  79 NW8       30.59S WCI -10
MANKATO        FLURRIES   8   5  87 W10       30.57S WCI  -6
WORTHINGTON    CLEAR      1  -2  87 W8        30.55F WCI -13
FAIRMONT       FLURRIES   8   4  83 NW13      30.58R WCI  -8
$$

...SOUTHWEST WISCONSIN...


CITY           SKY/WX    TMP DP  RH WIND       PRES   REMARKS
LA CROSSE      CLOUDY    23  12  62 N13       30.51S WCI  11
PRAIRIE DU CHI FLURRIES  20  13  73 NW8       30.53R WCI  10
BOSCOBEL       CLOUDY    22  15  75 W6        30.52R WCI  14
LONE ROCK      NOT AVBL
PLATTEVILLE    CLOUDY    19  17  90 W8        30.49R WCI   9
FORT MC COY    CLOUDY    21  14  74 NW10G16   30.49R WCI   9
MAUSTON-NEW LI CLOUDY    22  14  72 NW13      30.45R WCI  10
VIROQUA        CLOUDY    19  17  92 W8        30.45S WCI   8
WIS DELLS      FLURRIES  21  13  72 NW6       30.44S WCI  13
$$

...ELSEWHERE IN WISCONSIN...


CITY           SKY/WX    TMP DP  RH WIND       PRES   REMARKS
MILWAUKEE      CLEAR     23  15  71 NW10      30.42R WCI  12
MADISON        PTCLDY    20  15  81 W5        30.45R WCI  13
GREEN BAY      CLEAR     21  15  78 W10       30.39R WCI  10
EAU CLAIRE     NOT AVBL
BLACK RVR FLS  FAIR      18  12  76 NW8       30.49R WCI   8
MEDFORD        CLOUDY    16  11  81 W10       30.39R WCI   4
WAUSAU         PTCLDY    18  11  74 NW9       30.39R WCI   7
WIS RAPIDS     PTCLDY    16  12  84 W8        30.44R WCI   5
MARSHFIELD     MOCLDY    15   9  76 NW10      30.41R WCI   2
RICE LAKE      CLEAR     11   8  87 CALM      30.50R
$$

...NORTHEAST IOWA...


CITY           SKY/WX    TMP DP  RH WIND       PRES   REMARKS
WATERLOO       CLOUDY    15  10  80 NW12      30.55R WCI   2
DUBUQUE        CLOUDY    16  11  80 NW10      30.49S WCI   4
DECORAH        MOCLDY    14  10  85 NW5       30.50R WCI   6
MASON CITY     MOCLDY    12   8  84 W14       30.56S WCI  -3
CHARLES CITY   MOCLDY    12   7  79 W9        30.54S WCI   0
OELWEIN        CLOUDY    14  12  92 NW10      30.53S WCI   1
$$

...ELSEWHERE IN IOWA...


CITY           SKY/WX    TMP DP  RH WIND       PRES   REMARKS
DES MOINES     CLEAR     13   6  74 NW12      30.60F WCI  -1
IOWA CITY      CLEAR     18  10  71 NW9       30.58S WCI   7
FORT DODGE     CLEAR      9   1  72 NW5       30.59S WCI   0
MARSHALLTOWN   FLURRIES  15  10  80 NW13      30.57S WCI   1
CEDAR RAPIDS   PTCLDY    12  10  92 W8        30.54S WCI   0
$$

...NORTHERN ILLINOIS...


CITY           SKY/WX    TMP DP  RH WIND       PRES   REMARKS
CHICAGO-OHARE  CLOUDY    21  16  81 W8        30.45R WCI  11
CHICAGO-MIDWAY MOCLDY    21  14  74 W9        30.46R WCI  11
MOLINE         CLOUDY    20  11  68 NW12      30.55S WCI   8
ROCKFORD       FLURRIES  22  16  78 W10       30.49R WCI  11
PEORIA         CLOUDY    22  11  62 W9        30.54S WCI  12
$$

NOTE: "FAIR" INDICATES FEW OR NO CLOUDS BELOW 12,000 FEET WITH NO
SIGNIFICANT WEATHER AND/OR OBSTRUCTIONS TO VISIBILITY. WIND
SPEEDS ARE IN MILES-PER-HOUR.




USA.gov is the U.S. government's official web portal to all federal, state and local government web resources and services.